VIA003 SVMI-SVSR

Flight info

Callsign VIA003
Flight time 0h 45m
Altitude 26000
Route MIQ2 MIQ UL216 SFD
Aircraft B738/M-SDE2E3FGHIRWXY/LB1

Departure

Time 2026-05-06 13:08
Airport Maiquetía Simón Bolívar International Airport (SVMI)

Arrival

Time 2026-05-06 13:53
Airport San Fernando de Apure Las Flecheras National Airport (SVSR)
Time Latitude Longitude Altitude Speed Heading
2026-05-06 12:52 10.60116 -67.00615 299 ft 0 kts 358°
2026-05-06 12:58 10.60117 -67.00615 301 ft 0 kts 358°
2026-05-06 12:59 10.60102 -67.00614 301 ft 2 kts 357°
2026-05-06 12:59 10.60087 -67.00613 301 ft 2 kts 358°
2026-05-06 12:59 10.60072 -67.00613 301 ft 2 kts 358°
2026-05-06 12:59 10.60057 -67.00613 301 ft 2 kts 358°
2026-05-06 13:00 10.60042 -67.00612 301 ft 2 kts 358°
2026-05-06 13:00 10.60027 -67.00611 301 ft 2 kts 358°
2026-05-06 13:00 10.60012 -67.00610 301 ft 2 kts 357°
2026-05-06 13:00 10.60002 -67.00610 301 ft 1 kts 347°
2026-05-06 13:01 10.59993 -67.00602 301 ft 2 kts 285°
2026-05-06 13:01 10.59992 -67.00596 302 ft 1 kts 260°
2026-05-06 13:01 10.59993 -67.00590 302 ft 0 kts 268°
2026-05-06 13:03 10.59992 -67.00600 302 ft 2 kts 268°
2026-05-06 13:03 10.59991 -67.00624 301 ft 4 kts 268°
2026-05-06 13:03 10.59990 -67.00655 300 ft 4 kts 268°
2026-05-06 13:04 10.59989 -67.00691 300 ft 5 kts 268°
2026-05-06 13:04 10.59987 -67.00728 299 ft 5 kts 268°
2026-05-06 13:04 10.59987 -67.00767 298 ft 5 kts 269°
2026-05-06 13:04 10.59986 -67.00808 297 ft 6 kts 268°
2026-05-06 13:05 10.59984 -67.00854 296 ft 7 kts 266°
2026-05-06 13:05 10.59981 -67.00911 294 ft 8 kts 266°
2026-05-06 13:05 10.59978 -67.00976 292 ft 9 kts 268°
2026-05-06 13:05 10.59978 -67.01049 289 ft 10 kts 268°
2026-05-06 13:06 10.59974 -67.01131 286 ft 12 kts 267°
2026-05-06 13:06 10.59983 -67.01224 282 ft 14 kts 305°
2026-05-06 13:06 10.60072 -67.01252 282 ft 13 kts 356°
2026-05-06 13:06 10.60155 -67.01258 282 ft 10 kts 357°
2026-05-06 13:07 10.60206 -67.01228 284 ft 7 kts 67°
2026-05-06 13:07 10.60214 -67.01159 286 ft 15 kts 85°
2026-05-06 13:07 10.60224 -67.00954 293 ft 55 kts 88°
2026-05-06 13:07 10.60243 -67.00280 299 ft 132 kts 89°
2026-05-06 13:08 10.60294 -66.99122 433 ft 182 kts 86°
2026-05-06 13:08 10.60417 -66.97813 1191 ft 193 kts 83°
2026-05-06 13:08 10.60665 -66.96566 2259 ft 183 kts 66°
2026-05-06 13:08 10.61587 -66.95620 2806 ft 202 kts 28°
2026-05-06 13:09 10.62967 -66.95252 3523 ft 213 kts
2026-05-06 13:09 10.64464 -66.95406 4236 ft 224 kts 344°
2026-05-06 13:09 10.65854 -66.96175 4956 ft 233 kts 321°
2026-05-06 13:09 10.66957 -66.97425 5627 ft 243 kts 307°
2026-05-06 13:10 10.67954 -66.98883 6119 ft 262 kts 305°
2026-05-06 13:10 10.69033 -67.00459 6603 ft 282 kts 308°
2026-05-06 13:10 10.70474 -67.01901 7072 ft 294 kts 330°
2026-05-06 13:10 10.72338 -67.02723 7551 ft 294 kts 346°
2026-05-06 13:11 10.74347 -67.03237 8024 ft 296 kts 350°
2026-05-06 13:11 10.76363 -67.03725 8495 ft 299 kts 348°
2026-05-06 13:11 10.78386 -67.04275 8970 ft 302 kts 347°
2026-05-06 13:11 10.80442 -67.04883 9444 ft 304 kts 346°
2026-05-06 13:12 10.82471 -67.05513 9921 ft 306 kts 346°
2026-05-06 13:12 10.84521 -67.06161 10420 ft 309 kts 346°
2026-05-06 13:12 10.86583 -67.06813 10872 ft 311 kts 346°
2026-05-06 13:12 10.88689 -67.07478 11350 ft 317 kts 346°
2026-05-06 13:13 10.90859 -67.08157 11846 ft 331 kts 347°
2026-05-06 13:13 10.93091 -67.08854 12328 ft 344 kts 347°
2026-05-06 13:13 10.95422 -67.09625 12782 ft 354 kts 345°
2026-05-06 13:13 10.97764 -67.10493 13267 ft 357 kts 343°
2026-05-06 13:14 11.00097 -67.11401 13749 ft 358 kts 343°
2026-05-06 13:14 11.02438 -67.12279 14220 ft 354 kts 348°
2026-05-06 13:14 11.04856 -67.12495 14700 ft 347 kts 12°
2026-05-06 13:14 11.07090 -67.11661 15184 ft 339 kts 36°
2026-05-06 13:15 11.08705 -67.09922 15671 ft 339 kts 61°
2026-05-06 13:15 11.09388 -67.07625 16155 ft 346 kts 85°
2026-05-06 13:15 11.09013 -67.05191 16637 ft 358 kts 108°
2026-05-06 13:15 11.07799 -67.02915 17130 ft 368 kts 121°
2026-05-06 13:16 11.06112 -67.00900 17611 ft 378 kts 133°
2026-05-06 13:16 11.04006 -66.99265 18068 ft 386 kts 149°
2026-05-06 13:16 11.01429 -66.98374 18538 ft 394 kts 169°
2026-05-06 13:16 10.98656 -66.98150 19168 ft 395 kts 178°
2026-05-06 13:17 10.95911 -66.98144 19766 ft 397 kts 180°
2026-05-06 13:17 10.93113 -66.98194 20375 ft 399 kts 181°
2026-05-06 13:17 10.90336 -66.98264 20936 ft 400 kts 181°
2026-05-06 13:17 10.87518 -66.98339 21474 ft 403 kts 181°
2026-05-06 13:18 10.84707 -66.98414 22062 ft 403 kts 182°
2026-05-06 13:18 10.81841 -66.98487 22537 ft 407 kts 182°
2026-05-06 13:18 10.78993 -66.98558 23033 ft 410 kts 182°
2026-05-06 13:18 10.76105 -66.98627 23545 ft 412 kts 182°
2026-05-06 13:19 10.73224 -66.98693 24014 ft 416 kts 182°
2026-05-06 13:19 10.70338 -66.98759 24540 ft 417 kts 182°
2026-05-06 13:19 10.67382 -66.98824 24961 ft 421 kts 182°
2026-05-06 13:19 10.64456 -66.98896 25478 ft 421 kts 182°
2026-05-06 13:20 10.61508 -66.99072 25934 ft 423 kts 186°
2026-05-06 13:20 10.58545 -66.99480 26052 ft 427 kts 191°
2026-05-06 13:20 10.55638 -67.00067 26080 ft 423 kts 193°
2026-05-06 13:20 10.52763 -67.00745 26106 ft 421 kts 194°
2026-05-06 13:21 10.49907 -67.01461 26116 ft 422 kts 195°
2026-05-06 13:21 10.47037 -67.02193 26118 ft 423 kts 195°
2026-05-06 13:21 10.44141 -67.02928 26120 ft 422 kts 195°
2026-05-06 13:21 10.41286 -67.03645 26121 ft 422 kts 195°
2026-05-06 13:22 10.38403 -67.04363 26116 ft 421 kts 195°
2026-05-06 13:22 10.35551 -67.05079 26117 ft 421 kts 195°
2026-05-06 13:22 10.32677 -67.05808 26112 ft 422 kts 195°
2026-05-06 13:22 10.29825 -67.06532 26111 ft 421 kts 195°
2026-05-06 13:23 10.26968 -67.07257 26107 ft 420 kts 195°
2026-05-06 13:23 10.24096 -67.07985 26101 ft 420 kts 195°
2026-05-06 13:23 10.21265 -67.08701 26103 ft 420 kts 195°
2026-05-06 13:23 10.18386 -67.09426 26110 ft 420 kts 195°
2026-05-06 13:24 10.15549 -67.10139 26114 ft 420 kts 195°
2026-05-06 13:24 10.12688 -67.10858 26119 ft 419 kts 195°
2026-05-06 13:24 10.09833 -67.11575 26121 ft 419 kts 195°
2026-05-06 13:24 10.06982 -67.12291 26121 ft 419 kts 195°
2026-05-06 13:25 10.04152 -67.13000 26121 ft 419 kts 195°
2026-05-06 13:25 10.01316 -67.13711 26123 ft 418 kts 195°
2026-05-06 13:25 9.98483 -67.14422 26119 ft 418 kts 195°
2026-05-06 13:25 9.95631 -67.15115 26115 ft 418 kts 193°
2026-05-06 13:26 9.92761 -67.15660 26107 ft 419 kts 190°
2026-05-06 13:26 9.89869 -67.16090 26102 ft 419 kts 188°
2026-05-06 13:26 9.86925 -67.16475 26097 ft 420 kts 188°
2026-05-06 13:26 9.84055 -67.16833 26089 ft 420 kts 188°
2026-05-06 13:27 9.81131 -67.17200 26084 ft 420 kts 188°
2026-05-06 13:27 9.78214 -67.17573 26081 ft 420 kts 188°
2026-05-06 13:27 9.75320 -67.17951 26075 ft 420 kts 188°
2026-05-06 13:27 9.72429 -67.18336 26066 ft 419 kts 188°
2026-05-06 13:28 9.69497 -67.18733 26065 ft 419 kts 188°
2026-05-06 13:28 9.66592 -67.19128 26059 ft 419 kts 189°
2026-05-06 13:28 9.63699 -67.19525 26057 ft 419 kts 189°
2026-05-06 13:28 9.60806 -67.19923 26050 ft 418 kts 188°
2026-05-06 13:29 9.57931 -67.20319 26043 ft 418 kts 188°
2026-05-06 13:29 9.55026 -67.20720 26041 ft 418 kts 188°
2026-05-06 13:29 9.52131 -67.21119 26039 ft 418 kts 188°
2026-05-06 13:29 9.49236 -67.21519 26037 ft 418 kts 189°
2026-05-06 13:30 9.46334 -67.21918 26034 ft 418 kts 188°
2026-05-06 13:30 9.43445 -67.22317 26029 ft 418 kts 188°
2026-05-06 13:30 9.40565 -67.22714 26026 ft 418 kts 189°
2026-05-06 13:30 9.37670 -67.23113 26027 ft 418 kts 189°
2026-05-06 13:31 9.34778 -67.23511 26026 ft 418 kts 188°
2026-05-06 13:31 9.31886 -67.23910 26023 ft 417 kts 188°
2026-05-06 13:31 9.29003 -67.24307 26018 ft 416 kts 188°
2026-05-06 13:31 9.26158 -67.24699 26018 ft 416 kts 188°
2026-05-06 13:32 9.23251 -67.25099 26019 ft 417 kts 188°
2026-05-06 13:32 9.20366 -67.25497 26016 ft 417 kts 188°
2026-05-06 13:32 9.17489 -67.25893 26016 ft 417 kts 188°
2026-05-06 13:32 9.14600 -67.26291 26017 ft 417 kts 188°
2026-05-06 13:33 9.11735 -67.26685 25971 ft 418 kts 188°
2026-05-06 13:33 9.08839 -67.27084 25587 ft 421 kts 188°
2026-05-06 13:33 9.05928 -67.27484 25002 ft 420 kts 188°
2026-05-06 13:33 9.03039 -67.27881 24499 ft 417 kts 188°
2026-05-06 13:34 9.00185 -67.28272 23997 ft 413 kts 188°
2026-05-06 13:34 8.97343 -67.28663 23508 ft 410 kts 188°
2026-05-06 13:34 8.94498 -67.29054 23028 ft 406 kts 188°
2026-05-06 13:34 8.91721 -67.29436 22535 ft 402 kts 188°
2026-05-06 13:35 8.88953 -67.29816 21999 ft 401 kts 188°
2026-05-06 13:35 8.86155 -67.30203 21444 ft 399 kts 188°
2026-05-06 13:35 8.83431 -67.30577 20902 ft 398 kts 187°
2026-05-06 13:35 8.80664 -67.30958 20350 ft 397 kts 187°
2026-05-06 13:36 8.77947 -67.31332 19806 ft 395 kts 187°
2026-05-06 13:36 8.75222 -67.31706 19259 ft 394 kts 187°
2026-05-06 13:36 8.72502 -67.32080 18712 ft 393 kts 186°
2026-05-06 13:36 8.69783 -67.32454 18162 ft 391 kts 186°
2026-05-06 13:37 8.67082 -67.32826 17614 ft 390 kts 186°
2026-05-06 13:37 8.64394 -67.33195 17064 ft 388 kts 186°
2026-05-06 13:37 8.61736 -67.33560 16515 ft 387 kts 185°
2026-05-06 13:37 8.59061 -67.33928 15963 ft 385 kts 185°
2026-05-06 13:38 8.56396 -67.34293 15411 ft 383 kts 185°
2026-05-06 13:38 8.53757 -67.34656 14856 ft 381 kts 185°
2026-05-06 13:38 8.51146 -67.35015 14348 ft 375 kts 185°
2026-05-06 13:38 8.48605 -67.35367 13876 ft 360 kts 184°
2026-05-06 13:39 8.46162 -67.35706 13401 ft 347 kts 184°
2026-05-06 13:39 8.43829 -67.36028 12931 ft 335 kts 184°
2026-05-06 13:39 8.41529 -67.36343 12458 ft 324 kts 184°
2026-05-06 13:39 8.39331 -67.36644 11995 ft 315 kts 184°
2026-05-06 13:40 8.37192 -67.36935 11528 ft 307 kts 184°
2026-05-06 13:40 8.35098 -67.37221 11100 ft 298 kts 184°
2026-05-06 13:40 8.33083 -67.37505 10693 ft 290 kts 184°
2026-05-06 13:40 8.31094 -67.37788 10172 ft 286 kts 185°
2026-05-06 13:41 8.29115 -67.38071 9647 ft 283 kts 185°
2026-05-06 13:41 8.27163 -67.38351 9137 ft 279 kts 185°
2026-05-06 13:41 8.25256 -67.38624 8588 ft 278 kts 185°
2026-05-06 13:41 8.23342 -67.38896 8185 ft 275 kts 185°
2026-05-06 13:42 8.21424 -67.39170 7739 ft 278 kts 185°
2026-05-06 13:42 8.19510 -67.39443 7434 ft 275 kts 185°
2026-05-06 13:42 8.17619 -67.39713 7047 ft 275 kts 185°
2026-05-06 13:42 8.15727 -67.39983 6724 ft 274 kts 185°
2026-05-06 13:43 8.13827 -67.40254 6357 ft 273 kts 185°
2026-05-06 13:43 8.11944 -67.40523 6046 ft 271 kts 185°
2026-05-06 13:43 8.10049 -67.40794 5700 ft 270 kts 185°
2026-05-06 13:43 8.08194 -67.41059 5375 ft 269 kts 185°
2026-05-06 13:44 8.06327 -67.41326 5025 ft 268 kts 184°
2026-05-06 13:44 8.04501 -67.41586 4707 ft 267 kts 184°
2026-05-06 13:44 8.02659 -67.41849 4373 ft 266 kts 184°
2026-05-06 13:44 8.00854 -67.42107 4261 ft 255 kts 184°
2026-05-06 13:45 7.99118 -67.42358 4167 ft 245 kts 183°
2026-05-06 13:45 7.95882 -67.42822 3985 ft 223 kts 182°
2026-05-06 13:45 7.94337 -67.43105 3698 ft 227 kts 195°
2026-05-06 13:46 7.93080 -67.44062 3393 ft 235 kts 236°
2026-05-06 13:46 7.92668 -67.45633 3194 ft 230 kts 276°
2026-05-06 13:46 7.92920 -67.47169 3112 ft 217 kts 284°
2026-05-06 13:46 7.93261 -67.48608 3021 ft 205 kts 287°
2026-05-06 13:47 7.93612 -67.49952 2925 ft 192 kts 287°
2026-05-06 13:47 7.93954 -67.51262 2648 ft 191 kts 287°
2026-05-06 13:47 7.94288 -67.52560 2380 ft 190 kts 287°
2026-05-06 13:47 7.94613 -67.53838 2130 ft 188 kts 287°
2026-05-06 13:48 7.94926 -67.55096 1998 ft 178 kts 287°
2026-05-06 13:48 7.95221 -67.56297 1994 ft 177 kts 287°
2026-05-06 13:48 7.95516 -67.57515 1991 ft 178 kts 284°
2026-05-06 13:48 7.95387 -67.58740 1983 ft 180 kts 237°
2026-05-06 13:49 7.94445 -67.59455 1995 ft 168 kts 182°
2026-05-06 13:49 7.93424 -67.59183 1994 ft 148 kts 127°
2026-05-06 13:49 7.92924 -67.58313 2002 ft 143 kts 111°
2026-05-06 13:49 7.92480 -67.57426 1991 ft 139 kts 112°
2026-05-06 13:50 7.92068 -67.56535 2009 ft 138 kts 109°
2026-05-06 13:50 7.91706 -67.55631 1988 ft 138 kts 107°
2026-05-06 13:50 7.91378 -67.54730 1992 ft 138 kts 106°
2026-05-06 13:50 7.91071 -67.53820 1965 ft 139 kts 105°
2026-05-06 13:51 7.90767 -67.52890 1746 ft 133 kts 104°
2026-05-06 13:51 7.90495 -67.52005 1579 ft 132 kts 103°
2026-05-06 13:51 7.90229 -67.51099 1292 ft 136 kts 103°
2026-05-06 13:51 7.89971 -67.50189 1126 ft 134 kts 103°
2026-05-06 13:52 7.89709 -67.49282 964 ft 136 kts 102°
2026-05-06 13:52 7.89466 -67.48341 750 ft 142 kts 102°
2026-05-06 13:52 7.89218 -67.47354 551 ft 145 kts 102°
2026-05-06 13:52 7.88951 -67.46365 346 ft 147 kts 104°
2026-05-06 13:53 7.88646 -67.45379 194 ft 145 kts 105°
2026-05-06 13:53 7.88349 -67.44438 163 ft 120 kts 107°
2026-05-06 13:53 7.88167 -67.43876 163 ft 53 kts 107°
2026-05-06 13:53 7.88096 -67.43688 163 ft 16 kts 110°
2026-05-06 13:54 7.88080 -67.43625 163 ft 2 kts 17°
2026-05-06 13:54 7.88095 -67.43648 163 ft 4 kts 285°
2026-05-06 13:54 7.88108 -67.43693 163 ft 11 kts 286°
2026-05-06 13:54 7.88141 -67.43800 163 ft 20 kts 288°
2026-05-06 13:55 7.88190 -67.43959 163 ft 25 kts 288°
2026-05-06 13:55 7.88249 -67.44141 163 ft 28 kts 288°
2026-05-06 13:55 7.88309 -67.44336 163 ft 22 kts 288°
2026-05-06 13:55 7.88361 -67.44385 163 ft 9 kts
2026-05-06 13:56 7.88420 -67.44366 163 ft 8 kts 33°
2026-05-06 13:56 7.88444 -67.44320 163 ft 6 kts 71°
2026-05-06 13:56 7.88453 -67.44290 163 ft 0 kts 73°
2026-05-06 14:14 7.88455 -67.44288 163 ft 1 kts 49°
2026-05-06 14:14 7.88458 -67.44299 163 ft 3 kts 235°
2026-05-06 14:14 7.88443 -67.44321 163 ft 3 kts 235°
2026-05-06 14:15 7.88424 -67.44350 163 ft 6 kts 235°
2026-05-06 14:15 7.88381 -67.44376 163 ft 8 kts 198°
2026-05-06 14:15 7.88340 -67.44405 163 ft 6 kts 251°
2026-05-06 14:15 7.88345 -67.44448 163 ft 5 kts 286°
2026-05-06 14:16 7.88358 -67.44491 163 ft 8 kts 288°
2026-05-06 14:16 7.88384 -67.44569 163 ft 14 kts 288°
2026-05-06 14:16 7.88419 -67.44688 163 ft 20 kts 288°
2026-05-06 14:16 7.88475 -67.44846 163 ft 27 kts 288°
2026-05-06 14:17 7.88540 -67.45036 163 ft 27 kts 289°
2026-05-06 14:17 7.88595 -67.45197 163 ft 14 kts 289°
2026-05-06 14:17 7.88600 -67.45232 163 ft 1 kts 184°
2026-05-06 14:17 7.88588 -67.45213 163 ft 3 kts 107°
2026-05-06 14:18 7.88587 -67.45209 163 ft 0 kts 106°
2026-05-06 14:18 7.88536 -67.45044 163 ft 64 kts 106°
2026-05-06 14:19 7.88315 -67.44347 163 ft 139 kts 108°
2026-05-06 14:19 7.87966 -67.43273 474 ft 171 kts 106°
2026-05-06 14:19 7.87550 -67.42123 1213 ft 182 kts 114°
2026-05-06 14:19 7.86690 -67.41135 1941 ft 202 kts 139°
2026-05-06 14:20 7.85423 -67.40377 2738 ft 219 kts 150°
2026-05-06 14:20 7.83939 -67.39854 3529 ft 237 kts 162°
2026-05-06 14:20 7.82205 -67.39668 4201 ft 262 kts 178°
2026-05-06 14:20 7.80355 -67.39954 4949 ft 279 kts 194°
2026-05-06 14:21 7.78608 -67.40874 5828 ft 290 kts 217°
2026-05-06 14:21 7.77130 -67.42262 6753 ft 293 kts 220°
2026-05-06 14:21 7.75471 -67.43401 7610 ft 292 kts 201°
2026-05-06 14:21 7.73564 -67.44071 8512 ft 291 kts 192°
2026-05-06 14:22 7.71572 -67.44433 9354 ft 291 kts 182°
2026-05-06 14:22 7.69537 -67.44551 10159 ft 295 kts 179°
2026-05-06 14:22 7.67406 -67.44634 10674 ft 311 kts 180°
2026-05-06 14:22 7.65174 -67.44768 11134 ft 328 kts 181°
2026-05-06 14:23 7.62847 -67.44961 11836 ft 336 kts 182°
2026-05-06 14:23 7.60477 -67.45187 12558 ft 342 kts 182°
2026-05-06 14:23 7.58086 -67.45425 13322 ft 345 kts 182°
2026-05-06 14:23 7.55687 -67.45664 14006 ft 351 kts 182°
2026-05-06 14:24 7.53217 -67.45908 14743 ft 354 kts 182°
2026-05-06 14:24 7.50734 -67.46152 15443 ft 359 kts 183°
2026-05-06 14:24 7.48230 -67.46396 16114 ft 364 kts 183°
2026-05-06 14:24 7.45681 -67.46643 16802 ft 367 kts 183°
2026-05-06 14:25 7.43106 -67.46892 17434 ft 372 kts 184°
2026-05-06 14:25 7.40483 -67.47146 18139 ft 374 kts 184°